This is the latest recevied weather packets stored in our database for station/object DG8AAC-L2. If no packets are shown the sender has not sent any weather packets the latest 10 day(s).
| Time | Temp. | Humidity | Pressure | Rain* | Wind** | Luminosity | Snow |
|---|---|---|---|---|---|---|---|
| 1777782212 | 13.89° C | 40% | 1015 hPa | - | - | - | - |
| 1777780412 | 13.89° C | 40% | 1015.2 hPa | - | - | - | - |
| 1777778612 | 14.44° C | 39% | 1015.2 hPa | - | - | - | - |
| 1777776812 | 15° C | 38% | 1015.4 hPa | - | - | - | - |
| 1777775012 | 15.56° C | 37% | 1015.5 hPa | - | - | - | - |
| 1777773212 | 16.11° C | 36% | 1015.6 hPa | - | - | - | - |
| 1777771412 | 16.67° C | 36% | 1016 hPa | - | - | - | - |
| 1777769612 | 16.67° C | 35% | 1016.1 hPa | - | - | - | - |
| 1777767812 | 17.22° C | 35% | 1016.3 hPa | - | - | - | - |
| 1777766012 | 17.22° C | 35% | 1016 hPa | - | - | - | - |
| 1777764212 | 17.22° C | 35% | 1016.1 hPa | - | - | - | - |
| 1777762412 | 17.78° C | 35% | 1016.3 hPa | - | - | - | - |
| 1777760612 | 18.33° C | 35% | 1016.4 hPa | - | - | - | - |
| 1777758811 | 18.89° C | 34% | 1016.5 hPa | - | - | - | - |
| 1777757011 | 20° C | 33% | 1016.6 hPa | - | - | - | - |
| 1777755211 | 20.56° C | 33% | 1016.8 hPa | - | - | - | - |
| 1777753411 | 21.11° C | 32% | 1016.9 hPa | - | - | - | - |
| 1777751611 | 22.22° C | 31% | 1017.1 hPa | - | - | - | - |
| 1777749811 | 23.33° C | 29% | 1017.2 hPa | - | - | - | - |
| 1777748011 | 25° C | 28% | 1017 hPa | - | - | - | - |
| 1777746211 | 26.11° C | 27% | 1017 hPa | - | - | - | - |
| 1777744411 | 27.22° C | 25% | 1017 hPa | - | - | - | - |
| 1777742611 | 27.78° C | 24% | 1017.2 hPa | - | - | - | - |
| 1777740811 | 28.33° C | 24% | 1017.4 hPa | - | - | - | - |
| 1777739011 | 28.33° C | 22% | 1017.6 hPa | - | - | - | - |
* Rain since midnight (hover to see other rain measurements)
** Current wind speed in m/s (hover to see current wind gust speed)